Tracking 22440 objects as of 26-Feb-2021
HD Live streaming from Space Station
objects crossing your sky now

SCATHA AKM

Track SCATHA AKM now!


NORAD ID: 29000
Int'l Code: 1979-007C
Perigee: 28,238.1 km
Apogee: 42,617.5 km
Inclination: 14.3 °
Period: 1,417.4 minutes
Semi major axis: 41798 km
RCS: 0.003 m2 (small)
Launch date: January 30, 1979
Source: United States (US)
Launch site: AIR FORCE EASTERN TEST RANGE (AFETR)

Note: This is a ROCKET BODY
aabbcc
Your satellite tracking list
Your tracking list is empty




NASA's NSSDC Master Catalog

Two Line Element Set (TLE):
1 29000U 79007C   21056.74327302 -.00000123  00000-0  00000-0 0  9993
2 29000  14.3338 306.7860 1720081  70.6036 100.8160  1.01591446 28261
Source of the keplerian elements: AFSPC